sat.trackr.live / text

‹ back to catalog

STARLINK-5690

NORAD 55480 · 2023-015AH

PAYLOAD ACTIVE UNKNOWN

§ Identity

Operator
Country
US
Launch date
2023-02-02
Launch site
AFETR
Launch vehicle
Mass (kg)
RCS (m²)

Purposes: comms

External: N2YO · Heavens-Above · Gunter

§ Orbital elements

Epoch: 2026-05-25T01:01:04.109088Z

Period
94.27 min
Inclination
43.0009°
Eccentricity
0.0001280
Mean motion
15.27573690 rev/d
Perigee alt
482.2 km
Apogee alt
483.9 km
Semi-major
6,861.2 km
B*
-1.2301e-5
RAAN
268.3473°
Arg perigee
271.4776°
Mean anomaly
88.5929°
Rev number
18,227

§ Raw data

STARLINK-56901 55480U 23015AH  26145.04240867 -.00000600  00000+0 -12301-4 0  99902 55480  43.0009 268.3473 0001280 271.4776  88.5929 15.27573690182274

JSON: /api/v1/satellites/55480 · /tle

For live sub-satellite position, see the globe view (requires WebGL).

§ Visibility from observer

Set your observer location to see the next 7 days of passes ≥ 10°. The values pass through the URL so the page stays shareable.

No JS? Fill the form by hand. The geolocation button needs JavaScript.